Track YAOGAN 17B now! 10-day predictions YAOGAN 17B is classified as:
1 39240U 13046B 26254.86055833 .00000064 00000-0 14803-3 0 9998 2 39240 63.3837 227.2853 0433940 11.8129 349.2692 13.45480135639999